• In Russia
  • List of Countries
  • For 7 days
  • Water Temperature
  • Satellite Maps
  • Weather Map
  • Weather Widgets
  • user-avatar
    Login

    Hourly Weather Lubyanka

    Today, 25 April, Thursday

    Time Temperature Precipitation Wind Pressure Humidity
    00:00 +15°C° 0 mm 2 mps 755 mmHg 54%
    01:00 +15°C° 0 mm 2 mps 755 mmHg 55%
    02:00 +14°C° 0 mm 2 mps 755 mmHg 57%
    03:00 +13°C° 0 mm 2 mps 755 mmHg 59%
    04:00 +13°C° 0 mm 2 mps 755 mmHg 61%
    05:00 +13°C° 0 mm 2 mps 755 mmHg 63%
    06:00 +12°C° 0 mm 2 mps 755 mmHg 64%
    07:00 +14°C° 0 mm 2 mps 755 mmHg 59%
    08:00 +16°C° 0 mm 2 mps 755 mmHg 54%
    09:00 +18°C° 0 mm 2 mps 755 mmHg 49%
    10:00 +20°C° 0 mm 3 mps 755 mmHg 45%
    11:00 +21°C° 0 mm 3 mps 755 mmHg 40%
    12:00 +24°C° 0 mm 3 mps 754 mmHg 36%
    13:00 +24°C° 0 mm 3 mps 754 mmHg 34%
    14:00 +25°C° 0 mm 3 mps 754 mmHg 33%
    15:00 +25°C° 0 mm 3 mps 754 mmHg 31%
    16:00 +25°C° 0 mm 2 mps 753 mmHg 33%
    17:00 +25°C° 0 mm 2 mps 753 mmHg 36%
    18:00 +24°C° 0 mm 2 mps 753 mmHg 38%
    19:00 +23°C° 0 mm 2 mps 753 mmHg 41%
    20:00 +20°C° 0 mm 2 mps 753 mmHg 45%
    21:00 +19°C° 0 mm 2 mps 753 mmHg 48%
    22:00 +18°C° 0 mm 2 mps 753 mmHg 50%
    23:00 +18°C° 0 mm 2 mps 753 mmHg 51%

    Tomorrow, 26 April, Friday

    Time Temperature Precipitation Wind Pressure Humidity
    00:00 +17°C° 0 mm 2 mps 752 mmHg 53%
    01:00 +17°C° 0 mm 2 mps 752 mmHg 53%
    02:00 +17°C° 0 mm 2 mps 753 mmHg 53%
    03:00 +17°C° 0 mm 2 mps 753 mmHg 54%
    04:00 +16°C° 0 mm 2 mps 753 mmHg 57%
    05:00 +16°C° 0 mm 2 mps 752 mmHg 60%
    06:00 +15°C° 0 mm 2 mps 752 mmHg 63%
    07:00 +17°C° 0 mm 2 mps 753 mmHg 59%
    08:00 +19°C° 0 mm 1 mps 753 mmHg 54%
    09:00 +20°C° 0 mm 1 mps 753 mmHg 49%
    10:00 +21°C° 0 mm 1 mps 753 mmHg 45%
    11:00 +21°C° 0 mm 2 mps 753 mmHg 41%
    12:00 +23°C° 0 mm 2 mps 752 mmHg 37%
    13:00 +23°C° 0 mm 2 mps 752 mmHg 37%
    14:00 +23°C° 0 mm 1 mps 752 mmHg 36%
    15:00 +23°C° 0 mm 1 mps 752 mmHg 36%
    16:00 +22°C° 0 mm 1 mps 752 mmHg 38%
    17:00 +22°C° 0 mm 1 mps 752 mmHg 39%
    18:00 +22°C° 0 mm 1 mps 751 mmHg 40%
    19:00 +21°C° 0 mm 1 mps 751 mmHg 43%
    20:00 +20°C° 0 mm 1 mps 751 mmHg 47%
    21:00 +19°C° 0 mm 1 mps 751 mmHg 50%
    22:00 +18°C° 0 mm 1 mps 751 mmHg 52%
    23:00 +18°C° 0 mm 1 mps 751 mmHg 53%

    Day after tomorrow, 27 April, Saturday

    Time Temperature Precipitation Wind Pressure Humidity
    00:00 +15°C° 0 mm 0 mps 751 mmHg 54%
    01:00 +16°C° 0 mm 1 mps 751 mmHg 56%
    02:00 +15°C° 0 mm 1 mps 751 mmHg 59%
    03:00 +14°C° 0 mm 1 mps 750 mmHg 61%
    04:00 +14°C° 0 mm 1 mps 750 mmHg 64%
    05:00 +14°C° 0 mm 1 mps 750 mmHg 66%
    06:00 +14°C° 0 mm 1 mps 750 mmHg 69%
    07:00 +15°C° 0 mm 2 mps 749 mmHg 64%
    08:00 +17°C° 0 mm 2 mps 749 mmHg 60%
    09:00 +18°C° 0 mm 2 mps 749 mmHg 55%
    10:00 +20°C° 0 mm 3 mps 749 mmHg 51%
    11:00 +21°C° 0 mm 3 mps 748 mmHg 46%
    12:00 +22°C° 0 mm 3 mps 748 mmHg 41%
    13:00 +22°C° 0 mm 3 mps 748 mmHg 43%
    14:00 +22°C° 0 mm 3 mps 747 mmHg 44%
    15:00 +21°C° 0 mm 3 mps 747 mmHg 46%
    16:00 +21°C° 0 mm 2 mps 746 mmHg 47%
    17:00 +21°C° 0 mm 2 mps 746 mmHg 49%
    18:00 +20°C° 0 mm 2 mps 745 mmHg 51%
    19:00 +19°C° 0 mm 2 mps 745 mmHg 53%
    20:00 +19°C° 0 mm 3 mps 745 mmHg 54%
    21:00 +18°C° 0 mm 3 mps 745 mmHg 56%
    22:00 +17°C° 0.1 mm 3 mps 745 mmHg 61%
    23:00 +16°C° 0.1 mm 3 mps 744 mmHg 66%

    28 April, Sunday

    Time Temperature Precipitation Wind Pressure Humidity
    00:00 +14°C° 0.1 mm 3 mps 744 mmHg 71%
    01:00 +13°C° 0 mm 3 mps 744 mmHg 70%
    02:00 +13°C° 0 mm 3 mps 743 mmHg 69%
    03:00 +12°C° 0 mm 3 mps 743 mmHg 68%
    04:00 +12°C° 0 mm 3 mps 743 mmHg 70%
    05:00 +12°C° 0 mm 3 mps 743 mmHg 72%
    06:00 +11°C° 0 mm 3 mps 742 mmHg 73%
    07:00 +13°C° 0 mm 3 mps 742 mmHg 70%
    08:00 +15°C° 0 mm 4 mps 742 mmHg 66%
    09:00 +17°C° 0 mm 4 mps 742 mmHg 62%
    10:00 +17°C° 0.6 mm 3 mps 742 mmHg 66%
    11:00 +17°C° 0.6 mm 3 mps 742 mmHg 71%
    12:00 +16°C° 0.6 mm 2 mps 742 mmHg 75%
    13:00 +14°C° 0.3 mm 4 mps 743 mmHg 79%
    14:00 +12°C° 0.3 mm 5 mps 743 mmHg 82%
    15:00 +9°C° 0.3 mm 7 mps 743 mmHg 85%
    16:00 +9°C° 0.1 mm 7 mps 744 mmHg 83%
    17:00 +8°C° 0.1 mm 7 mps 744 mmHg 81%
    18:00 +8°C° 0.1 mm 7 mps 744 mmHg 80%
    19:00 +8°C° 0 mm 6 mps 745 mmHg 76%
    20:00 +8°C° 0 mm 6 mps 746 mmHg 72%
    21:00 +7°C° 0 mm 6 mps 746 mmHg 69%
    22:00 +5°C° 0 mm 6 mps 747 mmHg 68%
    23:00 +4°C° 0 mm 7 mps 747 mmHg 67%

    29 April, Monday

    Time Temperature Precipitation Wind Pressure Humidity
    00:00 +3°C° 0 mm 7 mps 748 mmHg 66%
    01:00 +2°C° 0 mm 7 mps 748 mmHg 68%
    02:00 +2°C° 0 mm 6 mps 749 mmHg 70%
    03:00 +1°C° 0 mm 6 mps 749 mmHg 71%
    04:00 +1°C° 0 mm 6 mps 749 mmHg 73%
    05:00 -1°C° 0 mm 6 mps 750 mmHg 74%
    06:00 -1°C° 0 mm 6 mps 750 mmHg 75%
    07:00 +1°C° 0 mm 6 mps 750 mmHg 69%
    08:00 +3°C° 0 mm 7 mps 751 mmHg 64%
    09:00 +4°C° 0 mm 7 mps 751 mmHg 58%
    10:00 +5°C° 0 mm 7 mps 751 mmHg 54%
    11:00 +6°C° 0 mm 7 mps 751 mmHg 50%
    12:00 +8°C° 0 mm 7 mps 751 mmHg 46%
    13:00 +8°C° 0 mm 6 mps 751 mmHg 45%
    14:00 +9°C° 0 mm 6 mps 751 mmHg 44%
    15:00 +9°C° 0 mm 6 mps 751 mmHg 43%
    16:00 +9°C° 0 mm 6 mps 751 mmHg 44%
    17:00 +8°C° 0 mm 5 mps 751 mmHg 44%
    18:00 +8°C° 0 mm 5 mps 751 mmHg 45%
    19:00 +7°C° 0 mm 5 mps 751 mmHg 47%
    20:00 +5°C° 0 mm 4 mps 752 mmHg 50%
    21:00 +4°C° 0 mm 4 mps 752 mmHg 52%
    22:00 +4°C° 0 mm 4 mps 753 mmHg 53%
    23:00 +3°C° 0 mm 3 mps 753 mmHg 54%

    30 April, Tuesday

    Time Temperature Precipitation Wind Pressure Humidity
    00:00 +2°C° 0 mm 3 mps 753 mmHg 55%
    01:00 +2°C° 0 mm 3 mps 753 mmHg 57%
    02:00 +1°C° 0 mm 3 mps 754 mmHg 59%
    03:00 +1°C° 0 mm 3 mps 754 mmHg 61%
    04:00 +1°C° 0 mm 3 mps 754 mmHg 62%
    05:00 0°C° 0 mm 3 mps 754 mmHg 63%
    06:00 0°C° 0 mm 3 mps 754 mmHg 64%
    07:00 +2°C° 0 mm 3 mps 754 mmHg 58%
    08:00 +3°C° 0 mm 4 mps 754 mmHg 51%
    09:00 +5°C° 0 mm 4 mps 754 mmHg 45%
    10:00 +6°C° 0 mm 4 mps 754 mmHg 42%
    11:00 +7°C° 0 mm 4 mps 754 mmHg 39%
    12:00 +8°C° 0 mm 4 mps 754 mmHg 36%
    13:00 +8°C° 0 mm 4 mps 754 mmHg 35%
    14:00 +10°C° 0 mm 4 mps 753 mmHg 34%
    15:00 +10°C° 0 mm 3 mps 753 mmHg 33%
    16:00 +10°C° 0 mm 3 mps 753 mmHg 34%
    17:00 +10°C° 0 mm 3 mps 752 mmHg 35%
    18:00 +10°C° 0 mm 3 mps 752 mmHg 37%
    19:00 +8°C° 0 mm 3 mps 752 mmHg 41%
    20:00 +7°C° 0 mm 2 mps 752 mmHg 45%
    21:00 +6°C° 0 mm 2 mps 752 mmHg 49%
    22:00 +5°C° 0 mm 2 mps 752 mmHg 50%
    23:00 +5°C° 0 mm 2 mps 752 mmHg 52%
    Show more